Location: Vesunti
(61.5000°N, 22.8333°E)
Time: 16:29:52
(UTC+00:00)

Cosmos 2322 - Pass Details

Date: 17 February 2020
Orbit: 840 x 855 km, 71.0° (Epoch: 01 April)

Event Time Altitude Azimuth Distance (km) Brightness Sun altitude
Exits shadow 01:57:47 75° 50° (NE) 878 3.8 -29.6°
Drops below altitude 10° 02:02:58 10° 43° (NE) 2,475 7.0 -29.0°
Sets 02:05:25 0° 43° (NE) 3,414 8.0 -28.8°
